Theta_e
334 332 330 331 332 330 332 334 337 349 337 334 330 336 334 332 345 346 346 347 346 344 345 346 348 346 345 343 345 344 342 342 344
331 333 333 332 338 341 339 336 336 340 332 333 335 337 334 330 341 348 351 349 347 348 347 346 347 347 340 340 339 337 338 344 344
331 333 332 333 338 339 339 339 341 342 337 338 335 334 332 335 344 353 353 350 349 347 347 345 345 342 339 339 338 336 339 342 345
328 329 330 331 336 338 339 342 344 345 343 339 334 334 336 336 343 351 353 350 349 347 346 341 340 341 341 338 335 336 342 345 346
324 327 329 333 332 335 334 335 339 340 343 343 342 340 340 342 346 349 347 347 348 347 346 341 339 343 340 335 335 337 344 346 347
326 329 330 330 325 329 332 328 331 336 336 338 340 340 343 340 339 339 342 341 345 345 345 343 344 344 341 336 335 339 341 345 346
330 331 332 329 326 324 321 320 323 329 330 332 333 337 336 336 336 336 340 342 342 343 343 342 340 342 341 340 342 345 346 345 343
329 329 329 328 327 325 324 324 323 330 327 326 328 330 329 329 332 334 337 338 339 341 340 340 341 339 339 338 340 343 339 339 335
320 321 323 325 326 328 327 327 327 329 330 327 328 327 328 330 330 330 330 330 332 335 338 337 335 333 332 331 336 337 336 335 330
312 312 313 312 313 315 319 322 324 328 328 330 329 327 327 328 328 327 328 329 330 329 329 335 334 335 334 334 334 332 332 335 330
310 312 313 313 314 314 317 318 319 320 322 326 329 327 327 327 328 325 326 326 326 327 329 329 329 331 334 334 336 331 330 333 331
313 314 315 316 317 317 317 318 319 318 318 318 319 322 325 327 328 325 325 325 326 326 327 328 329 330 330 332 334 328 327 329 334
316 316 317 317 318 318 318 319 319 318 318 319 319 320 322 323 324 325 327 327 326 327 327 328 328 328 329 329 331 326 324 325 334
315 316 316 318 317 315 316 318 318 318 319 319 322 322 325 326 325 326 327 326 326 326 327 328 327 328 330 330 329 329 323 322 328
314 313 315 316 315 315 316 317 317 316 317 320 322 323 324 325 325 326 327 326 326 325 327 326 326 326 326 327 329 324 323 320 320
312 313 314 315 315 318 319 319 318 317 318 321 321 321 320 322 323 323 325 323 323 323 324 324 325 324 324 325 326 327 321 320 319
311 314 314 316 318 318 318 320 319 320 321 321 319 320 322 323 323 322 323 324 324 323 323 322 323 323 323 323 324 325 326 324 323
314 315 316 317 316 314 313 315 313 313 314 314 310 310 312 314 319 322 322 323 323 323 324 322 323 323 323 322 321 323 319 319 322
314 314 314 313 312 311 310 311 311 310 310 310 309 307 307 308 311 315 319 322 323 316 313 310 307 307 315 323 315 311 307 304 304
313 311 311 311 310 310 310 310 309 310 311 311 309 307 307 307 307 310 314 319 321 320 319 310 307 304 304 305 310 306 303 301 300
Wind_Speed
5 8 8 8 8 3 6 5 4 9 12 7 13 19 19 26 18 7 8 8 6 6 5 5 5 6 5 5 2 3 5 5 7
10 12 15 15 16 14 4 6 8 8 7 7 6 13 16 21 26 12 11 11 6 8 7 4 4 8 10 8 7 7 5 7 8
8 4 11 11 11 12 2 5 9 7 7 7 10 9 11 16 11 9 9 7 9 8 6 4 8 9 10 8 6 6 6 7 8
6 4 5 5 6 10 2 4 5 7 10 9 7 10 8 10 10 9 8 7 6 8 5 6 7 10 9 8 6 5 7 9 11
6 5 4 2 5 10 3 5 7 4 5 6 7 8 10 12 11 7 6 4 7 4 6 6 8 9 9 7 6 6 7 10 10
5 4 3 5 6 8 2 5 5 3 3 5 6 5 7 4 2 3 4 2 3 1 2 4 5 8 9 7 5 7 8 10 9
7 5 4 7 7 7 5 2 4 6 6 5 3 3 4 4 1 2 3 3 1 1 1 2 5 6 6 7 7 8 8 8 7
7 6 5 5 6 6 7 7 6 6 5 5 5 6 4 3 2 2 3 4 4 4 4 3 3 1 4 5 5 4 4 5 5
9 5 4 6 7 6 6 6 7 6 7 7 6 5 6 6 4 4 4 4 3 3 2 1 1 2 3 3 4 7 8 6 5
6 5 7 10 10 9 9 8 7 7 7 6 7 7 8 7 6 6 6 4 4 4 4 3 4 4 4 5 5 8 10 11 5
6 6 6 6 5 6 6 7 9 11 11 10 7 7 8 7 7 7 7 6 7 6 5 6 6 6 7 6 5 10 11 13 6
4 4 5 4 5 5 7 7 7 6 7 8 8 10 10 9 7 7 7 8 8 7 5 6 7 6 7 7 7 11 10 8 7
7 7 6 8 8 7 7 10 9 8 7 7 7 7 8 8 8 7 8 8 8 6 4 7 5 7 7 9 8 9 12 8 5
3 4 7 7 6 7 8 10 11 11 12 11 10 7 8 8 6 7 7 7 5 6 7 8 8 9 9 9 9 9 13 13 6
7 7 9 9 8 9 9 9 9 11 12 12 13 12 12 12 10 9 8 8 8 7 7 8 10 10 9 8 9 12 12 15 15
7 8 9 9 8 12 12 12 8 11 14 14 13 13 13 12 11 10 10 9 9 8 7 8 9 8 9 9 7 7 13 16 15
6 10 8 8 11 12 12 11 14 12 15 14 15 14 13 11 10 11 11 8 8 8 8 8 9 9 9 9 7 7 7 5 5
7 7 8 9 10 11 12 12 13 12 14 12 13 14 13 12 12 11 10 10 9 8 9 9 9 9 9 8 8 9 10 9 5
6 7 8 8 9 10 12 13 14 15 14 13 13 13 11 10 11 10 10 9 9 11 15 15 15 17 11 8 13 11 10 12 13
7 7 8 10 9 12 11 14 15 16 13 13 12 12 12 10 10 9 10 9 8 8 7 13 15 17 16 15 16 12 13 13 7
Wind_Direction
75 19 351 312 292 230 226 202 121 105 105 118 67 41 319 285 280 241 242 227 224 225 218 218 204 188 113 109 137 219 218 226 237
37 24 357 345 338 335 305 218 141 133 118 151 142 133 219 262 257 237 226 236 223 235 215 213 168 138 145 153 179 194 220 248 239
104 111 311 338 335 324 320 263 129 149 151 158 198 204 227 229 250 239 237 235 222 239 229 162 146 164 171 204 189 207 214 235 231
192 125 212 300 321 300 69 76 83 137 154 165 203 218 257 273 283 273 254 231 221 234 205 167 170 191 198 201 200 204 190 213 228
112 144 217 266 268 273 60 88 65 108 110 155 199 226 259 276 273 276 271 271 257 248 212 177 196 204 205 218 207 199 210 219 215
114 155 191 267 266 260 313 71 92 131 144 171 181 189 189 217 321 346 355 276 289 241 221 173 196 211 217 208 234 233 230 236 230
137 151 185 244 266 272 310 256 200 185 205 221 229 194 150 143 128 13 43 60 88 27 299 285 175 205 222 236 243 237 231 219 199
131 164 213 258 303 312 318 308 303 306 267 230 213 191 185 178 138 115 85 67 44 45 38 19 11 187 216 237 242 241 216 195 199
51 29 326 285 275 302 316 295 281 256 250 239 265 235 215 245 227 219 197 186 179 149 153 166 242 261 239 259 252 237 214 199 211
66 30 15 9 354 337 319 310 317 314 277 266 227 219 239 220 229 249 245 226 218 230 224 207 224 239 226 241 250 234 216 217 214
51 34 25 13 356 346 355 344 345 330 328 319 291 264 245 238 231 225 242 226 224 225 213 217 228 233 238 238 237 236 222 220 213
34 16 356 328 314 312 323 338 328 327 325 325 321 307 305 301 295 269 247 229 229 227 211 218 222 225 240 234 235 226 235 215 216
0 353 347 335 332 331 335 332 330 321 313 311 300 285 286 291 289 272 266 259 259 256 221 228 227 234 230 237 246 228 234 225 220
291 317 343 337 335 329 323 330 330 324 322 314 308 302 312 300 288 280 262 253 245 248 244 241 240 234 235 231 231 246 236 230 208
352 347 343 342 333 325 316 322 324 319 310 305 310 308 303 298 296 296 295 282 274 252 251 249 250 244 248 246 241 236 246 240 227
340 336 329 325 314 334 335 332 304 308 308 310 309 303 297 293 292 291 280 267 264 263 244 246 254 247 247 248 241 245 238 244 241
334 346 332 321 331 333 328 343 345 333 327 351 338 321 306 289 281 284 279 266 260 254 253 243 244 250 246 244 243 245 245 235 239
346 334 336 342 342 335 335 338 337 332 329 331 323 317 313 308 301 289 280 274 269 261 252 242 247 243 243 239 237 241 227 221 226
342 346 345 355 353 342 336 330 330 331 329 322 313 310 310 304 299 301 295 278 275 250 246 259 258 253 241 243 245 250 242 240 244
1 353 355 356 336 340 328 330 331 331 328 323 311 303 297 292 289 290 294 306 273 272 269 248 256 256 246 233 246 252 250 255 255